Total_Precipitation_Accumulation
0.07 0.06 0.06 0.07 0.05 0.03 0.00 0.00 0.00 0.00 0.00 0.00 0.00 0.00 0.00 0.00 0.00 0.01 0.01 0.01 0.02 0.04 0.07 0.18 0.25 0.29 0.36 0.39 0.37 0.33 0.30 0.37 0.42 0.44 0.49 0.58 0.58 0.54 0.54 0.51 0.50 0.52 0.59 0.62 0.65 0.62 0.60 0.54 0.54
0.07 0.09 0.10 0.10 0.05 0.02 0.00 0.00 0.00 0.00 0.00 0.00 0.00 0.00 0.00 0.00 0.00 0.01 0.01 0.01 0.02 0.03 0.05 0.12 0.23 0.29 0.35 0.37 0.36 0.34 0.33 0.34 0.39 0.43 0.47 0.52 0.54 0.55 0.54 0.51 0.51 0.55 0.62 0.67 0.68 0.68 0.64 0.58 0.53
0.11 0.14 0.12 0.10 0.04 0.00 0.00 0.00 0.00 0.00 0.00 0.00 0.00 0.00 0.00 0.00 0.00 0.01 0.01 0.01 0.02 0.03 0.05 0.12 0.24 0.30 0.36 0.40 0.38 0.37 0.37 0.38 0.39 0.42 0.47 0.55 0.54 0.53 0.50 0.47 0.47 0.52 0.63 0.69 0.69 0.63 0.60 0.59 0.57
0.13 0.18 0.16 0.10 0.02 0.00 0.00 0.00 0.00 0.00 0.00 0.00 0.00 0.00 0.00 0.00 0.00 0.01 0.01 0.01 0.02 0.03 0.06 0.14 0.25 0.33 0.38 0.41 0.42 0.41 0.41 0.44 0.46 0.47 0.51 0.58 0.59 0.58 0.53 0.47 0.44 0.45 0.52 0.59 0.60 0.57 0.57 0.58 0.52
0.18 0.19 0.16 0.08 0.01 0.00 0.00 0.00 0.00 0.00 0.00 0.00 0.00 0.00 0.00 0.00 0.00 0.00 0.01 0.02 0.02 0.04 0.07 0.16 0.30 0.38 0.42 0.44 0.44 0.46 0.47 0.50 0.52 0.54 0.57 0.61 0.61 0.60 0.57 0.55 0.50 0.46 0.46 0.49 0.52 0.53 0.54 0.55 0.50
0.25 0.22 0.15 0.05 0.01 0.00 0.00 0.00 0.00 0.00 0.00 0.00 0.00 0.00 0.00 0.00 0.01 0.01 0.01 0.02 0.02 0.04 0.09 0.19 0.36 0.43 0.49 0.51 0.51 0.53 0.55 0.56 0.59 0.60 0.64 0.63 0.60 0.59 0.58 0.56 0.51 0.47 0.43 0.42 0.44 0.46 0.48 0.49 0.48
0.25 0.24 0.12 0.05 0.02 0.01 0.01 0.00 0.01 0.00 0.00 0.00 0.00 0.01 0.01 0.01 0.01 0.02 0.02 0.03 0.05 0.08 0.13 0.22 0.35 0.43 0.52 0.56 0.56 0.57 0.59 0.60 0.64 0.66 0.68 0.66 0.61 0.61 0.62 0.58 0.52 0.49 0.47 0.43 0.38 0.38 0.39 0.38 0.41
0.28 0.32 0.16 0.06 0.03 0.02 0.00 0.00 0.01 0.01 0.01 0.00 0.01 0.01 0.01 0.01 0.02 0.03 0.04 0.06 0.09 0.13 0.18 0.25 0.35 0.42 0.49 0.56 0.60 0.59 0.62 0.65 0.69 0.72 0.70 0.66 0.66 0.65 0.63 0.56 0.50 0.51 0.51 0.46 0.42 0.39 0.36 0.33 0.33
0.39 0.43 0.20 0.06 0.04 0.03 0.02 0.02 0.01 0.01 0.02 0.01 0.01 0.01 0.01 0.01 0.02 0.04 0.08 0.11 0.15 0.19 0.23 0.31 0.40 0.47 0.54 0.60 0.62 0.69 0.74 0.80 0.81 0.78 0.74 0.74 0.72 0.68 0.59 0.48 0.47 0.51 0.52 0.47 0.44 0.43 0.39 0.36 0.30
0.42 0.36 0.15 0.04 0.03 0.05 0.05 0.05 0.04 0.04 0.03 0.02 0.02 0.02 0.02 0.02 0.04 0.06 0.08 0.12 0.15 0.19 0.25 0.33 0.43 0.50 0.59 0.63 0.72 0.84 0.84 0.86 0.85 0.75 0.71 0.74 0.68 0.64 0.58 0.51 0.49 0.54 0.54 0.51 0.49 0.48 0.47 0.42 0.33
0.33 0.24 0.10 0.06 0.04 0.07 0.08 0.07 0.08 0.10 0.07 0.03 0.04 0.04 0.03 0.04 0.07 0.10 0.12 0.12 0.13 0.16 0.22 0.31 0.45 0.57 0.61 0.64 0.74 0.83 0.85 0.85 0.86 0.81 0.77 0.74 0.75 0.71 0.67 0.61 0.61 0.60 0.57 0.56 0.56 0.59 0.54 0.49 0.45
0.25 0.17 0.12 0.10 0.09 0.11 0.11 0.11 0.11 0.10 0.08 0.04 0.04 0.06 0.06 0.07 0.09 0.10 0.13 0.13 0.16 0.20 0.26 0.35 0.49 0.59 0.62 0.63 0.69 0.75 0.77 0.76 0.77 0.78 0.80 0.80 0.80 0.76 0.73 0.68 0.69 0.70 0.67 0.63 0.61 0.58 0.55 0.52 0.47
0.22 0.12 0.10 0.10 0.12 0.13 0.13 0.12 0.11 0.08 0.04 0.05 0.05 0.06 0.08 0.08 0.09 0.10 0.13 0.18 0.20 0.22 0.30 0.42 0.52 0.60 0.67 0.71 0.75 0.76 0.73 0.69 0.72 0.76 0.80 0.75 0.69 0.64 0.59 0.58 0.57 0.52 0.50 0.50 0.52 0.53 0.52 0.50 0.47
0.18 0.13 0.10 0.11 0.13 0.14 0.16 0.12 0.10 0.06 0.03 0.05 0.07 0.07 0.08 0.08 0.10 0.11 0.14 0.20 0.24 0.25 0.33 0.47 0.57 0.65 0.73 0.71 0.75 0.76 0.73 0.70 0.73 0.72 0.69 0.68 0.64 0.59 0.54 0.50 0.50 0.46 0.41 0.38 0.39 0.39 0.40 0.41 0.39
0.21 0.22 0.16 0.10 0.10 0.12 0.19 0.19 0.08 0.05 0.05 0.07 0.09 0.08 0.08 0.08 0.10 0.12 0.13 0.15 0.21 0.28 0.38 0.48 0.61 0.76 0.81 0.78 0.80 0.83 0.80 0.76 0.73 0.71 0.67 0.67 0.64 0.61 0.58 0.53 0.49 0.47 0.46 0.45 0.43 0.42 0.40 0.37 0.34
0.33 0.38 0.28 0.11 0.08 0.12 0.28 0.23 0.06 0.04 0.09 0.10 0.10 0.10 0.09 0.09 0.11 0.13 0.16 0.17 0.21 0.31 0.42 0.52 0.65 0.81 0.89 0.88 0.88 0.87 0.86 0.86 0.81 0.75 0.72 0.68 0.64 0.61 0.60 0.58 0.54 0.53 0.54 0.55 0.54 0.48 0.45 0.41 0.37
0.46 0.41 0.24 0.10 0.08 0.15 0.28 0.21 0.05 0.05 0.10 0.11 0.11 0.11 0.11 0.10 0.12 0.15 0.18 0.20 0.22 0.30 0.41 0.53 0.65 0.80 0.93 1.00 0.96 0.95 0.90 0.91 0.90 0.83 0.76 0.72 0.66 0.62 0.60 0.59 0.60 0.63 0.66 0.65 0.61 0.56 0.49 0.46 0.42
0.42 0.27 0.17 0.09 0.08 0.14 0.20 0.14 0.06 0.06 0.10 0.10 0.11 0.13 0.12 0.14 0.15 0.18 0.22 0.25 0.26 0.30 0.40 0.54 0.67 0.85 0.98 1.15 1.18 1.15 1.06 0.95 0.93 0.90 0.78 0.71 0.70 0.67 0.65 0.63 0.64 0.69 0.72 0.70 0.67 0.61 0.56 0.52 0.50
0.27 0.27 0.19 0.08 0.07 0.16 0.15 0.11 0.08 0.08 0.10 0.11 0.12 0.14 0.15 0.16 0.19 0.22 0.28 0.35 0.37 0.39 0.44 0.53 0.67 0.84 1.02 1.15 1.23 1.19 1.13 0.97 0.91 0.90 0.85 0.76 0.72 0.75 0.74 0.68 0.69 0.68 0.69 0.67 0.65 0.66 0.65 0.61 0.59
0.31 0.34 0.25 0.14 0.09 0.18 0.17 0.10 0.07 0.08 0.11 0.13 0.13 0.16 0.18 0.16 0.18 0.20 0.25 0.37 0.42 0.45 0.47 0.51 0.62 0.75 0.93 1.06 1.12 1.19 1.14 1.05 0.96 0.93 0.91 0.83 0.74 0.78 0.84 0.77 0.71 0.70 0.68 0.70 0.71 0.69 0.70 0.71 0.66
0.37 0.32 0.25 0.21 0.17 0.21 0.25 0.18 0.06 0.05 0.07 0.10 0.11 0.13 0.16 0.18 0.18 0.19 0.23 0.33 0.42 0.46 0.50 0.54 0.59 0.67 0.79 1.04 1.27 1.40 1.44 1.32 1.15 1.03 0.94 0.84 0.77 0.72 0.80 0.84 0.78 0.73 0.70 0.68 0.67 0.66 0.66 0.69 0.64
0.42 0.22 0.22 0.27 0.41 0.41 0.34 0.37 0.09 0.04 0.05 0.07 0.09 0.10 0.11 0.15 0.15 0.16 0.21 0.28 0.37 0.44 0.54 0.63 0.63 0.70 0.79 0.97 1.27 1.43 1.48 1.36 1.10 0.95 0.92 0.89 0.83 0.77 0.73 0.81 0.83 0.81 0.78 0.73 0.67 0.65 0.65 0.71 0.74
0.33 0.22 0.25 0.31 0.50 0.59 0.40 0.45 0.15 0.06 0.08 0.06 0.06 0.08 0.09 0.12 0.14 0.14 0.17 0.22 0.31 0.45 0.56 0.69 0.74 0.80 0.89 0.97 1.15 1.39 1.49 1.41 1.27 1.12 1.01 0.95 0.93 0.89 0.80 0.77 0.81 0.82 0.81 0.80 0.74 0.70 0.71 0.73 0.77
0.31 0.37 0.45 0.53 0.87 1.12 0.39 0.36 0.21 0.12 0.13 0.10 0.08 0.09 0.10 0.13 0.15 0.13 0.14 0.17 0.27 0.43 0.52 0.68 0.80 0.83 0.95 1.01 1.12 1.25 1.42 1.52 1.49 1.37 1.23 1.09 1.03 0.98 0.95 0.82 0.79 0.80 0.81 0.82 0.80 0.74 0.72 0.74 0.75
0.56 0.96 1.45 1.56 1.62 0.98 0.19 0.25 0.23 0.12 0.09 0.12 0.14 0.12 0.12 0.12 0.14 0.14 0.13 0.14 0.22 0.40 0.51 0.64 0.80 0.81 0.90 0.98 1.07 1.18 1.33 1.48 1.58 1.49 1.33 1.22 1.18 1.08 0.98 0.93 0.84 0.82 0.80 0.80 0.82 0.82 0.76 0.72 0.77
0.59 0.88 1.21 1.10 0.69 0.25 0.12 0.20 0.18 0.11 0.07 0.06 0.08 0.11 0.12 0.12 0.12 0.14 0.14 0.14 0.19 0.28 0.41 0.55 0.75 0.78 0.80 0.88 0.97 1.11 1.29 1.46 1.55 1.58 1.41 1.29 1.21 1.10 0.99 0.95 0.89 0.83 0.84 0.86 0.85 0.83 0.81 0.76 0.74
0.54 0.62 0.57 0.80 0.56 0.32 0.21 0.17 0.13 0.07 0.04 0.04 0.05 0.07 0.09 0.12 0.11 0.12 0.15 0.15 0.19 0.24 0.34 0.47 0.70 0.78 0.73 0.79 0.88 1.01 1.16 1.37 1.46 1.49 1.48 1.36 1.28 1.21 1.14 1.05 1.00 0.93 0.91 0.90 0.90 0.87 0.82 0.82 0.82
0.45 0.57 0.66 1.07 1.00 0.58 0.31 0.18 0.20 0.13 0.08 0.06 0.06 0.07 0.09 0.10 0.10 0.10 0.13 0.14 0.17 0.22 0.31 0.44 0.61 0.79 0.77 0.77 0.84 0.93 1.01 1.18 1.33 1.44 1.54 1.42 1.35 1.31 1.32 1.26 1.20 1.10 1.05 1.03 1.00 0.95 0.86 0.85 0.85
0.56 0.73 0.93 0.97 0.77 0.62 0.45 0.31 0.26 0.19 0.14 0.12 0.09 0.08 0.08 0.09 0.10 0.10 0.12 0.12 0.15 0.18 0.26 0.41 0.55 0.70 0.83 0.85 0.83 0.92 1.00 1.12 1.22 1.26 1.34 1.42 1.42 1.37 1.42 1.46 1.41 1.32 1.23 1.19 1.18 1.12 1.04 1.00 0.92
0.60 0.69 0.81 1.01 0.78 0.44 0.43 0.38 0.24 0.16 0.14 0.13 0.11 0.08 0.07 0.08 0.10 0.10 0.11 0.12 0.13 0.16 0.22 0.34 0.51 0.64 0.76 0.86 0.89 0.91 0.99 1.13 1.19 1.15 1.14 1.21 1.32 1.34 1.39 1.56 1.58 1.52 1.41 1.33 1.34 1.34 1.26 1.21 1.12